When you browse on this site, cookies collect data to enhance your experience and personalize the content and advertising you see.
Visit our Privacy Policy to learn more. By continuing to use the site, you agree to this use of cookies and data.
  • In Hungary
  • List of Countries
  • For 7 days
  • Water Temperature
  • Weather Map
  • News
  • Weather Widgets
  • user-avatar
    Login

    Hourly Weather Negotka

    Today, 18 January, Saturday

    Time Temperature Precipitation Wind Pressure Humidity
    00:00 -20°C° 0.1 mm 6 mps 744 mmHg 90%
    01:00 -21°C° 0.1 mm 6 mps 746 mmHg 88%
    02:00 -22°C° 0.1 mm 6 mps 747 mmHg 87%
    03:00 -24°C° 0 mm 6 mps 749 mmHg 87%
    04:00 -26°C° 0 mm 5 mps 750 mmHg 87%
    05:00 -27°C° 0 mm 4 mps 752 mmHg 88%
    06:00 -27°C° 0 mm 4 mps 752 mmHg 89%
    07:00 -27°C° 0 mm 3 mps 753 mmHg 91%
    08:00 -27°C° 0 mm 3 mps 754 mmHg 92%
    09:00 -26°C° 0 mm 3 mps 754 mmHg 92%
    10:00 -24°C° 0 mm 3 mps 755 mmHg 92%
    11:00 -24°C° 0 mm 4 mps 756 mmHg 92%
    12:00 -23°C° 0 mm 4 mps 756 mmHg 92%
    13:00 -22°C° 0 mm 4 mps 756 mmHg 92%
    14:00 -22°C° 0 mm 4 mps 756 mmHg 92%
    15:00 -20°C° 0 mm 4 mps 756 mmHg 91%
    16:00 -19°C° 0 mm 4 mps 756 mmHg 90%
    17:00 -20°C° 0 mm 5 mps 757 mmHg 87%
    18:00 -20°C° 0 mm 5 mps 756 mmHg 87%
    19:00 -19°C° 0 mm 5 mps 755 mmHg 87%
    20:00 -18°C° 0 mm 4 mps 754 mmHg 87%
    21:00 -19°C° 0 mm 5 mps 754 mmHg 84%
    22:00 -18°C° 0 mm 5 mps 753 mmHg 82%
    23:00 -18°C° 0 mm 5 mps 753 mmHg 79%

    Tomorrow, 19 January, Sunday

    Time Temperature Precipitation Wind Pressure Humidity
    00:00 -19°C° 0 mm 5 mps 751 mmHg 83%
    01:00 -19°C° 0 mm 5 mps 750 mmHg 87%
    02:00 -20°C° 0 mm 5 mps 749 mmHg 91%
    03:00 -19°C° 0.3 mm 4 mps 749 mmHg 92%
    04:00 -18°C° 0.3 mm 3 mps 748 mmHg 94%
    05:00 -18°C° 0.3 mm 3 mps 748 mmHg 95%
    06:00 -18°C° 0.3 mm 3 mps 747 mmHg 95%
    07:00 -17°C° 0.3 mm 2 mps 747 mmHg 95%
    08:00 -17°C° 0.3 mm 2 mps 747 mmHg 95%
    09:00 -18°C° 0.1 mm 3 mps 747 mmHg 94%
    10:00 -18°C° 0.1 mm 3 mps 747 mmHg 93%
    11:00 -17°C° 0.1 mm 3 mps 748 mmHg 92%
    12:00 -18°C° 0 mm 3 mps 748 mmHg 93%
    13:00 -19°C° 0 mm 4 mps 748 mmHg 93%
    14:00 -20°C° 0 mm 4 mps 749 mmHg 93%
    15:00 -22°C° 0 mm 4 mps 749 mmHg 94%
    16:00 -23°C° 0 mm 4 mps 750 mmHg 94%
    17:00 -25°C° 0 mm 4 mps 751 mmHg 95%
    18:00 -25°C° 0 mm 4 mps 752 mmHg 95%
    19:00 -24°C° 0 mm 3 mps 753 mmHg 94%
    20:00 -24°C° 0 mm 3 mps 753 mmHg 94%
    21:00 -25°C° 0 mm 3 mps 754 mmHg 95%
    22:00 -26°C° 0 mm 3 mps 755 mmHg 95%
    23:00 -29°C° 0 mm 3 mps 755 mmHg 95%

    Day after tomorrow, 20 January, Monday

    Time Temperature Precipitation Wind Pressure Humidity
    00:00 -30°C° 0 mm 3 mps 755 mmHg 94%
    01:00 -31°C° 0 mm 3 mps 755 mmHg 94%
    02:00 -32°C° 0 mm 3 mps 755 mmHg 93%
    03:00 -31°C° 0 mm 3 mps 756 mmHg 92%
    04:00 -31°C° 0 mm 3 mps 756 mmHg 91%
    05:00 -32°C° 0 mm 4 mps 756 mmHg 90%
    06:00 -32°C° 0 mm 4 mps 756 mmHg 92%
    07:00 -31°C° 0 mm 4 mps 756 mmHg 93%
    08:00 -31°C° 0 mm 4 mps 755 mmHg 95%
    09:00 -31°C° 0 mm 4 mps 756 mmHg 95%
    10:00 -31°C° 0 mm 4 mps 756 mmHg 95%
    11:00 -31°C° 0 mm 4 mps 756 mmHg 95%
    12:00 -30°C° 0 mm 4 mps 755 mmHg 95%
    13:00 -29°C° 0 mm 3 mps 755 mmHg 95%
    14:00 -29°C° 0 mm 3 mps 755 mmHg 95%
    15:00 -29°C° 0 mm 3 mps 754 mmHg 95%
    16:00 -29°C° 0 mm 3 mps 754 mmHg 96%
    17:00 -27°C° 0 mm 3 mps 754 mmHg 96%
    18:00 -27°C° 0.2 mm 4 mps 753 mmHg 96%
    19:00 -25°C° 0.2 mm 4 mps 753 mmHg 96%
    20:00 -24°C° 0.2 mm 4 mps 752 mmHg 95%
    21:00 -23°C° 0.1 mm 4 mps 752 mmHg 94%
    22:00 -22°C° 0.1 mm 4 mps 752 mmHg 93%
    23:00 -22°C° 0.1 mm 4 mps 751 mmHg 93%

    21 January, Tuesday

    Time Temperature Precipitation Wind Pressure Humidity
    00:00 -21°C° 0.1 mm 5 mps 751 mmHg 93%
    01:00 -21°C° 0.1 mm 5 mps 751 mmHg 92%
    02:00 -21°C° 0.1 mm 5 mps 751 mmHg 92%
    03:00 -21°C° 0 mm 5 mps 751 mmHg 92%
    04:00 -20°C° 0 mm 4 mps 752 mmHg 92%
    05:00 -22°C° 0 mm 4 mps 752 mmHg 92%
    06:00 -22°C° 0 mm 4 mps 752 mmHg 94%
    07:00 -22°C° 0 mm 3 mps 753 mmHg 95%
    08:00 -22°C° 0 mm 3 mps 753 mmHg 96%
    09:00 -23°C° 0 mm 2 mps 754 mmHg 96%
    10:00 -24°C° 0 mm 2 mps 755 mmHg 96%
    11:00 -25°C° 0 mm 2 mps 755 mmHg 96%
    12:00 -22°C° 0 mm 1 mps 755 mmHg 96%
    13:00 -23°C° 0 mm 1 mps 756 mmHg 96%
    14:00 -23°C° 0 mm 1 mps 756 mmHg 96%
    15:00 -25°C° 0 mm 1 mps 756 mmHg 97%
    16:00 -26°C° 0 mm 0 mps 757 mmHg 97%
    17:00 -27°C° 0 mm 0 mps 757 mmHg 98%
    18:00 -27°C° 0 mm 0 mps 757 mmHg 98%
    19:00 -28°C° 0 mm 1 mps 757 mmHg 97%
    20:00 -27°C° 0 mm 1 mps 758 mmHg 97%
    21:00 -27°C° 0 mm 1 mps 758 mmHg 98%
    22:00 -28°C° 0 mm 2 mps 758 mmHg 98%
    23:00 -28°C° 0 mm 2 mps 758 mmHg 98%

    22 January, Wednesday

    Time Temperature Precipitation Wind Pressure Humidity
    00:00 -28°C° 0 mm 2 mps 758 mmHg 98%
    01:00 -28°C° 0 mm 2 mps 758 mmHg 98%
    02:00 -28°C° 0 mm 2 mps 758 mmHg 98%
    03:00 -28°C° 0 mm 2 mps 758 mmHg 98%
    04:00 -28°C° 0 mm 2 mps 757 mmHg 98%
    05:00 -28°C° 0 mm 2 mps 757 mmHg 98%
    06:00 -30°C° 0 mm 3 mps 757 mmHg 98%
    07:00 -29°C° 0 mm 3 mps 757 mmHg 98%
    08:00 -29°C° 0 mm 3 mps 757 mmHg 98%
    09:00 -27°C° 0 mm 3 mps 756 mmHg 97%
    10:00 -26°C° 0 mm 3 mps 756 mmHg 96%
    11:00 -26°C° 0 mm 3 mps 756 mmHg 95%
    12:00 -26°C° 0 mm 4 mps 755 mmHg 95%
    13:00 -26°C° 0 mm 4 mps 755 mmHg 95%
    14:00 -26°C° 0 mm 4 mps 754 mmHg 94%
    15:00 -26°C° 0 mm 4 mps 754 mmHg 94%
    16:00 -26°C° 0 mm 4 mps 754 mmHg 94%
    17:00 -27°C° 0 mm 4 mps 753 mmHg 93%
    18:00 -27°C° 0 mm 4 mps 753 mmHg 94%
    19:00 -27°C° 0 mm 4 mps 752 mmHg 95%
    20:00 -27°C° 0 mm 4 mps 752 mmHg 96%
    21:00 -27°C° 0 mm 4 mps 752 mmHg 96%
    22:00 -27°C° 0 mm 4 mps 751 mmHg 96%
    23:00 -25°C° 0 mm 3 mps 751 mmHg 97%

    23 January, Thursday

    Time Temperature Precipitation Wind Pressure Humidity
    00:00 -26°C° 0 mm 4 mps 751 mmHg 97%
    01:00 -26°C° 0 mm 4 mps 751 mmHg 97%
    02:00 -25°C° 0 mm 4 mps 750 mmHg 97%
    03:00 -24°C° 0 mm 4 mps 750 mmHg 96%
    04:00 -23°C° 0 mm 4 mps 750 mmHg 96%
    05:00 -22°C° 0 mm 4 mps 749 mmHg 95%
    06:00 -20°C° 0.1 mm 4 mps 749 mmHg 94%
    07:00 -18°C° 0.1 mm 4 mps 749 mmHg 94%
    08:00 -17°C° 0.1 mm 4 mps 748 mmHg 93%
    09:00 -16°C° 0.1 mm 4 mps 748 mmHg 93%
    10:00 -14°C° 0.1 mm 5 mps 748 mmHg 92%
    11:00 -13°C° 0.1 mm 5 mps 747 mmHg 92%
    12:00 -13°C° 0.1 mm 5 mps 747 mmHg 92%
    13:00 -12°C° 0.1 mm 5 mps 746 mmHg 92%
    14:00 -12°C° 0.1 mm 5 mps 746 mmHg 92%
    15:00 -11°C° 0.1 mm 5 mps 745 mmHg 92%
    16:00 -11°C° 0.1 mm 5 mps 745 mmHg 92%
    17:00 -11°C° 0.1 mm 5 mps 744 mmHg 92%
    18:00 -10°C° 0.2 mm 5 mps 744 mmHg 92%
    19:00 -10°C° 0.2 mm 5 mps 743 mmHg 93%
    20:00 -10°C° 0.2 mm 6 mps 742 mmHg 93%
    21:00 -9°C° 0.3 mm 6 mps 742 mmHg 93%
    22:00 -8°C° 0.3 mm 5 mps 741 mmHg 94%
    23:00 -8°C° 0.3 mm 5 mps 740 mmHg 94%
    Show more